Powrót do katalogu

ONEWEB-0129

AktywnyŁącznośćPO
NORAD 47275·PAYLOAD·🇬🇧 United Kingdom

Wystrzelony Dec 18, 2020 z Vostochny Cosmodrome

Loading…

Następne Przeloty (najbliższe 24 godziny)

TLE

ŚwieżeSource: CelesTrak SupGP

Epoka: Sep 14, 2026, 14:40 UTC

1 47275C 20100T   26257.61128889  .00004099  00000+0  11408-1 0  2576
2 47275  87.8989 332.9068 0000795  96.9638   8.5429 13.12438645    15

Śledź ONEWEB-0129 w czasie rzeczywistym z AllMySat

Download on the App Store